Weather in Hakone

Japan     35°12′52″N   139°04′05″E
temp.,
°C
wind,
m/s
gust,
m/s
humid.,
%
clouds,
%
prec.,
mm/h
press.,
hPa
HPBL,
m
29 september, wed
wed2900:00+16nne22865 0.0 101869
03:00+15nne22874 0.0 101747
06:00+15nne22850 0.0 101757
09:00+20e236913 0.0 1017719
12:00+22ese336449 0.1 10161137
15:00+22ese337146 0.3 1015849
18:00+19e118422 0.1 1016165
21:00+18ene1188100 0.2 101687
30 september, thu
thu3000:00+18ne1187100 0.1 101467
03:00+17n1190100 0.1 101317
06:00+17nne1184100 0.0 101223
09:00+20ene1180100 0.1 1012239
12:00+23se2264100 0.2 10101079
15:00+21se2275100 0.2 1009389
18:00+19e1283100 0.0 1009112
21:00+19ene2395100 0.5 1009277
1 october, fri
fri100:00+18ene2398100 1.4 1008306
03:00+18ne3597100 2.2 1006310
06:00+17nne4795100 1.4 1005374
09:00+17nne41094100 3.1 1005507
12:00+17nne51293100 5.1 1002682
15:00+17nne61591100 10.0 999928
18:00+17nne71588100 2.3 999822
21:00+17nne51388100 2.8 998834
2 october, sat
sat200:00+17nnw2290100 0.0 99859
03:00+17w228966 0.0 100021
06:00+16wnw22900 0.0 100428
09:00+22sw22682 0.0 1007536
12:00+24s335911 0.0 10081286
15:00+24ssw226411 0.1 1009891
18:00+20nne11870 1.1 101213
21:00+19ne11900 1.9 101518
3 october, sun
sun300:00+18nne11890 0.1 101717
03:00+18n11880 0.1 101817
06:00+17nne11880 0.0 101916
09:00+22e22758 0.0 1022564
12:00+23ese336843 0.0 1022903
15:00+23ese22709 0.1 1023753
18:00+20se01881 0.1 102542
21:00+19w11901 0.1 102636